This is the latest recevied weather packets stored in our database for station/object F6BIJ-13. If no packets are shown the sender has not sent any weather packets the latest 10 day(s).
| Time | Temp. | Humidity | Pressure | Rain* | Wind** | Luminosity | Snow |
|---|---|---|---|---|---|---|---|
| 1777673557 | 17.78° C | 58% | 1024.4 hPa | 0 mm | - | - | - |
| 1777673197 | 17.78° C | 59% | 1024.3 hPa | 0 mm | - | - | - |
| 1777672837 | 17.78° C | 59% | 1024.3 hPa | 0 mm | - | - | - |
| 1777672477 | 17.78° C | 58% | 1024.3 hPa | 0 mm | - | - | - |
| 1777672117 | 17.78° C | 59% | 1024.3 hPa | 0 mm | - | - | - |
| 1777671757 | 17.78° C | 59% | 1024.3 hPa | 0 mm | - | - | - |
| 1777671397 | 17.78° C | 60% | 1024.1 hPa | 0 mm | - | - | - |
| 1777671037 | 17.78° C | 60% | 1024.2 hPa | 0 mm | - | - | - |
| 1777670677 | 18.33° C | 60% | 1024.1 hPa | 0 mm | - | - | - |
| 1777670317 | 17.78° C | 61% | 1024.1 hPa | 0 mm | - | - | - |
| 1777669957 | 17.78° C | 62% | 1024.1 hPa | 0 mm | - | - | - |
| 1777669597 | 17.78° C | 63% | 1024.1 hPa | 0 mm | - | - | - |
| 1777669237 | 18.33° C | 63% | 1024 hPa | 0 mm | - | - | - |
| 1777668877 | 17.78° C | 64% | 1024 hPa | 0 mm | - | - | - |
| 1777668517 | 18.33° C | 64% | 1024 hPa | 0 mm | - | - | - |
| 1777668157 | 18.33° C | 65% | 1023.9 hPa | 0 mm | - | - | - |
| 1777667797 | 18.33° C | 64% | 1023.8 hPa | 0 mm | - | - | - |
| 1777667437 | 17.78° C | 64% | 1023.8 hPa | 0 mm | - | - | - |
| 1777667077 | 18.33° C | 64% | 1023.7 hPa | 0 mm | - | - | - |
| 1777666717 | 18.89° C | 65% | 1023.7 hPa | 0 mm | - | - | - |
| 1777666357 | 18.89° C | 65% | 1023.7 hPa | 0 mm | - | - | - |
| 1777665997 | 18.89° C | 65% | 1023.8 hPa | 0 mm | - | - | - |
| 1777665637 | 19.44° C | 65% | 1023.6 hPa | 0 mm | - | - | - |
| 1777665277 | 18.89° C | 64% | 1023.6 hPa | 0 mm | - | - | - |
| 1777664917 | 18.89° C | 64% | 1023.4 hPa | 0 mm | - | - | - |
* Rain latest 24 hours (hover to see other rain measurements)
** Current wind speed in m/s (hover to see current wind gust speed)